LIMF

Turin/Caselle Airport

Airport
ICAO code
LIMF
IATA Code
TRN
Summary
ICAO Region
EUR
ICAO Territory
Location

Caselle Torinese, Piedmont

Serving
Turin
Elevation
989 ft
Coordinates
45° 11' 51" N , 7° 38' 58" E
KCC
Metar
LIMF 230320Z AUTO 35002KT 9999 BKN110/// OVC200/// 16/14 Q1009

International airport serving city of Turin.

Climatology

Humid “subtropical” climate (Köppen climate classification Cfa) - characterized by hot, humid summers and cool winters. Significant amounts of precipitation occur in all seasons in most areas. Winter rainfall (and sometimes snowfall) is associated with large storms that the westerlies steer from west to east. Most summer rainfall occurs during thunderstorms.

Runways

Designator Length Width Surface Rops
18/36 3300 60 ASP Yes/Yes

Airport map

Aerial View

SKYbrary Partners:

Safety knowledge contributed by: